time_stamp(utc),avg(mph),gust(mph),direction(deg),12m_air_temp(f),sonic_u(cm/s),sonic_v(cm/s),sonic_w(cm/s),pressure,2m_air_temp(f),pyranometer(W/m^2)
"2019-09-16 00:03:57+00",4.6,5.6,,72.1,15,-197,-7,1018.47,71.5,0
"2019-09-16 00:08:57+00",4.7,5.7,,72.1,18,-195,-5,1018.35,71.5,0
"2019-09-16 00:13:57+00",5.0,6.0,,72.1,46,-207,-5,1018.33,71.4,0
"2019-09-16 00:18:57+00",3.6,4.6,,72,16,-145,-3,1018.39,71.4,0
"2019-09-16 00:23:57+00",4.7,5.7,,71.9,6,-198,-3,1018.37,71.4,0
"2019-09-16 00:28:57+00",4.4,4.4,,71.9,15,-180,-5,1018.38,71.4,0
"2019-09-16 00:33:57+00",4.7,4.7,,71.9,26,-197,-7,1018.37,71.4,0
"2019-09-16 00:38:57+00",5.3,5.3,,71.9,17,-219,-7,1018.37,71.3,0
"2019-09-16 00:43:57+00",5.0,5.0,,71.9,16,-213,-9,1018.36,71.3,0
"2019-09-16 00:48:57+00",4.8,4.8,,72,-3,-202,-6,1018.43,71.3,0
"2019-09-16 00:53:57+00",5.2,5.2,,72,5,-220,-3,1018.36,71.4,0
"2019-09-16 00:58:57+00",5.3,5.3,,71.9,26,-225,-10,1018.38,71.3,0
"2019-09-16 01:03:57+00",5.7,5.7,,71.9,23,-237,-8,1018.41,71.2,0
"2019-09-16 01:08:57+00",5.7,5.7,,71.8,20,-239,-7,1018.33,71.2,0
"2019-09-16 01:13:57+00",4.9,4.9,,71.7,21,-202,-10,1018.4,71.1,0
"2019-09-16 01:18:57+00",5.3,5.3,,71.7,32,-222,-13,1018.31,71.1,0
"2019-09-16 01:23:57+00",5.9,5.9,,71.7,18,-244,-6,1018.23,71.1,0
"2019-09-16 01:28:57+00",5.4,5.4,,71.7,12,-228,-5,1018.25,71.1,0
"2019-09-16 01:33:57+00",5.4,5.4,,71.7,17,-226,-4,1018.33,71.1,0
"2019-09-16 01:38:57+00",5.7,5.7,,71.8,9,-239,-4,1018.33,71.1,0
"2019-09-16 01:43:57+00",5.2,5.2,,71.8,-13,-218,-3,1018.39,71.2,0
"2019-09-16 01:48:57+00",4.4,5.4,,71.8,-31,-174,-2,1018.36,71.3,0
"2019-09-16 01:53:57+00",3.5,3.5,,71.7,-45,-137,-4,1018.37,71.2,0
"2019-09-16 01:58:57+00",3.5,3.5,,71.7,-60,-136,2,1018.41,71,0
"2019-09-16 02:03:57+00",4.4,4.4,,71.6,-64,-173,-1,1018.34,70.8,0
"2019-09-16 02:08:57+00",4.5,4.5,,71.7,-59,-174,-3,1018.34,70.8,0
"2019-09-16 02:13:57+00",5.0,5.0,,71.6,-73,-194,-4,1018.37,70.9,0
"2019-09-16 02:18:57+00",5.7,6.7,,71.6,-73,-231,-3,1018.3,70.9,0
"2019-09-16 02:23:57+00",6.1,6.1,,71.6,-100,-233,-5,1018.26,70.9,0
"2019-09-16 02:28:57+00",6.5,7.5,,71.5,-87,-259,-3,1018.2,70.8,0
"2019-09-16 02:33:57+00",6.3,7.3,,71.6,-103,-242,-1,1018.26,70.9,0
"2019-09-16 02:38:57+00",4.5,5.5,,71.6,-61,-179,-1,1018.16,70.9,0
"2019-09-16 02:43:57+00",4.7,5.7,,71.6,-49,-195,-2,1018.16,71.1,0
"2019-09-16 02:48:57+00",4.9,5.9,,71.5,-62,-197,2,1018.16,71,0
"2019-09-16 02:53:57+00",6.2,7.2,,71.6,-108,-240,-4,1018.21,70.9,0
"2019-09-16 02:58:57+00",6.7,6.7,,71.7,-157,-250,0,1018.19,70.9,0
"2019-09-16 03:03:57+00",6.0,7.0,,71.7,-180,-201,5,1018.21,70.9,0
"2019-09-16 03:08:57+00",7.2,8.2,,71.7,-153,-274,1,1018.2,71.1,0
"2019-09-16 03:13:57+00",6.6,7.6,,71.7,-96,-265,-2,1018.19,71.1,0
"2019-09-16 03:18:57+00",6.1,6.1,,71.8,-162,-218,2,1018.32,71.2,0
"2019-09-16 03:23:57+00",4.8,5.8,,71.8,-129,-170,11,1018.38,71.2,0
"2019-09-16 03:28:57+00",6.9,7.9,,71.8,-172,-247,-8,1018.29,71.3,0
"2019-09-16 03:33:57+00",6.8,7.8,,71.8,-220,-188,10,1018.3,71.5,0
"2019-09-16 03:38:57+00",5.7,6.7,,71.8,-183,-159,7,1018.28,71.5,0
"2019-09-16 03:43:57+00",6.3,7.3,,71.7,-199,-200,8,1018.16,71.5,0
"2019-09-16 03:48:57+00",5.8,6.8,,71.8,-193,-156,4,1018.23,71.4,0
"2019-09-16 03:53:57+00",6.1,7.1,,71.8,-181,-212,2,1018.05,71.3,0
"2019-09-16 03:58:57+00",7.0,8.0,,71.6,-184,-256,0,1018.12,71.3,0
"2019-09-16 04:03:57+00",6.4,7.4,,71.6,-156,-237,4,1018.13,71.3,0
"2019-09-16 04:08:57+00",6.5,7.5,,71.5,-189,-223,4,1018.16,71.3,0
"2019-09-16 04:13:57+00",6.3,7.3,,71.4,-206,-174,5,1018.17,71.2,0
"2019-09-16 04:18:57+00",5.4,6.4,,71.4,-215,-116,4,1018.09,71.1,0
"2019-09-16 04:23:57+00",5.2,6.2,,71.6,-219,-89,4,1018.12,71,0
"2019-09-16 04:28:57+00",5.6,6.6,,71.7,-224,-120,5,1018.15,70.9,0
"2019-09-16 04:33:57+00",4.2,5.2,,71.7,-176,-46,9,1018.08,70.9,0
"2019-09-16 04:38:57+00",3.6,3.6,,71.8,-154,28,16,1018.13,71,0
"2019-09-16 04:43:57+00",5.2,6.2,,71.6,-206,79,41,1018.13,71.2,0
"2019-09-16 04:48:57+00",7.0,8.0,,71.3,-305,78,24,1018.18,71.3,0
"2019-09-16 04:53:57+00",7.8,8.8,,71,-336,87,18,1018.25,71.3,0
"2019-09-16 04:58:57+00",7.2,8.2,,70.9,-312,5,19,1018.23,71.3,0
"2019-09-16 05:03:57+00",6.2,7.2,,70.6,-239,122,19,1018.29,71.1,0
"2019-09-16 05:08:57+00",5.8,6.8,,70.4,-224,98,14,1018.29,70.7,0
"2019-09-16 05:13:57+00",5.5,6.5,,70.2,-236,63,26,1018.27,70.5,0
"2019-09-16 05:18:57+00",5.1,6.1,,70.1,-211,71,16,1018.22,70.3,0
"2019-09-16 05:23:57+00",4.7,4.7,,69.9,-200,26,10,1018.19,70.2,0
"2019-09-16 05:28:57+00",4.4,5.4,,69.8,-187,-25,7,1018.07,70,0
"2019-09-16 05:33:57+00",4.0,4.0,,69.7,-128,-100,4,1017.94,69.7,0
"2019-09-16 05:38:57+00",3.3,4.3,,69.6,-111,-80,7,1017.94,69.4,0
"2019-09-16 05:43:57+00",3.2,4.2,,69.6,-129,-20,9,1017.93,69.3,0
"2019-09-16 05:48:57+00",3.9,3.9,,69.6,-119,-104,5,1017.83,69.2,0
"2019-09-16 05:53:57+00",3.6,3.6,,69.7,-148,-76,2,1017.85,69,0
"2019-09-16 05:58:57+00",4.1,5.1,,69.8,-173,-85,12,1017.81,69,0
"2019-09-16 06:03:57+00",4.4,4.4,,69.9,-187,-25,9,1017.88,68.9,0
"2019-09-16 06:08:57+00",4.7,4.7,,70,-206,26,14,1017.83,68.9,0
"2019-09-16 06:13:57+00",3.8,3.8,,69.9,-158,-10,9,1017.73,69,0
"2019-09-16 06:18:57+00",4.1,4.1,,69.9,-174,-29,9,1017.76,69.1,0
"2019-09-16 06:23:57+00",5.0,6.0,,69.9,-210,-38,10,1017.72,69.3,0
"2019-09-16 06:28:57+00",5.0,5.0,,69.8,-195,-58,12,1017.61,69.3,0
"2019-09-16 06:33:57+00",4.0,4.0,,69.7,-164,-22,-1,1017.64,69.1,0
"2019-09-16 06:38:57+00",4.7,4.7,,69.7,-197,-36,8,1017.55,69,0
"2019-09-16 06:43:57+00",4.7,4.7,,69.8,-186,-45,9,1017.48,69,0
"2019-09-16 06:48:57+00",4.8,4.8,,69.8,-201,-26,11,1017.39,69,0
"2019-09-16 06:53:57+00",4.6,5.6,,70,-183,72,11,1017.43,69,0
"2019-09-16 06:58:57+00",6.0,7.0,,70,-260,55,13,1017.39,69,0
"2019-09-16 07:03:57+00",5.4,6.4,,70.2,-234,54,20,1017.33,69.1,0
"2019-09-16 07:08:57+00",5.6,6.6,,70.3,-228,94,22,1017.29,69.1,0
"2019-09-16 07:13:57+00",6.2,7.2,,70.3,-257,110,19,1017.42,69,0
"2019-09-16 07:18:57+00",6.1,6.1,,70.2,-220,157,21,1017.37,68.9,0
"2019-09-16 07:23:57+00",7.1,8.1,,69.9,-284,148,21,1017.42,68.8,0
"2019-09-16 07:28:57+00",6.0,7.0,,69.8,-215,155,32,1017.39,68.7,0
"2019-09-16 07:33:57+00",5.8,6.8,,69.6,-201,147,17,1017.38,68.7,0
"2019-09-16 07:38:57+00",5.4,6.4,,69.4,-219,95,9,1017.38,68.6,0
"2019-09-16 07:43:57+00",6.1,6.1,,69.5,-243,112,15,1017.38,68.2,0
"2019-09-16 07:48:57+00",5.6,6.6,,69.5,-235,76,14,1017.32,68.1,0
"2019-09-16 07:53:57+00",5.4,5.4,,69.8,-212,104,14,1017.25,68,0
"2019-09-16 07:58:57+00",5.0,5.0,,70,-188,111,12,1017.16,68,0
"2019-09-16 08:03:57+00",5.3,5.3,,70.1,-200,121,13,1017.2,68,0
"2019-09-16 08:08:57+00",5.7,6.7,,70.3,-203,152,17,1017.32,68.1,0
"2019-09-16 08:13:57+00",6.2,6.2,,70.3,-209,180,21,1017.29,68.3,0
"2019-09-16 08:18:57+00",7.0,7.0,,70.1,-227,216,26,1017.24,68.3,0
"2019-09-16 08:23:57+00",7.6,8.6,,70,-273,206,28,1017.15,68,0
"2019-09-16 08:28:57+00",5.2,6.2,,69.9,-181,137,16,1017.19,68,0
"2019-09-16 08:33:57+00",6.8,7.8,,70,-233,193,17,1017.26,67.8,0
"2019-09-16 08:38:57+00",5.5,6.5,,70,-192,148,19,1017.23,67.8,0
"2019-09-16 08:43:57+00",6.0,7.0,,69.9,-226,162,10,1017.2,67.8,0
"2019-09-16 08:48:57+00",6.2,7.2,,69.9,-228,157,17,1017.32,67.6,0
"2019-09-16 08:53:57+00",7.1,8.1,,69.9,-242,195,20,1017.26,67.5,0
"2019-09-16 08:58:57+00",8.0,8.0,,69.9,-273,227,30,1017.3,67.3,0
"2019-09-16 09:03:57+00",7.6,8.6,,69.9,-249,229,27,1017.29,67.4,0
"2019-09-16 09:08:57+00",7.9,8.9,,70,-281,216,22,1017.3,67.4,0
"2019-09-16 09:13:57+00",6.6,6.6,,69.8,-236,171,20,1017.21,67.4,0
"2019-09-16 09:18:57+00",8.1,9.1,,69.6,-296,207,21,1017.27,67.4,0
"2019-09-16 09:23:57+00",6.6,6.6,,69.6,-252,153,18,1017.21,67.3,0
"2019-09-16 09:28:57+00",7.3,8.3,,69.4,-268,174,19,1017.27,67.2,0
"2019-09-16 09:33:57+00",7.5,8.5,,69.5,-268,206,25,1017.26,67.2,0
"2019-09-16 09:38:57+00",8.6,9.6,,69.4,-265,266,28,1017.35,67.4,0
"2019-09-16 09:43:57+00",7.7,8.7,,69.3,-257,227,21,1017.33,67.4,0
"2019-09-16 09:48:57+00",7.2,8.2,,69.2,-242,211,30,1017.3,67.4,0
"2019-09-16 09:53:57+00",7.4,8.4,,69.2,-231,236,27,1017.34,67.5,0
"2019-09-16 09:58:57+00",5.6,6.6,,69,-189,168,20,1017.36,67.6,0
"2019-09-16 10:03:57+00",4.9,5.9,,68.7,-169,135,12,1017.33,67.3,0
"2019-09-16 10:08:57+00",3.9,3.9,,68.7,-135,86,8,1017.35,67.2,0
"2019-09-16 10:13:57+00",4.4,4.4,,68.9,-164,101,15,1017.37,67.3,0
"2019-09-16 10:18:57+00",5.3,5.3,,69.1,-201,113,17,1017.42,67.3,0
"2019-09-16 10:23:57+00",4.9,4.9,,69.3,-184,113,17,1017.37,67.3,0
"2019-09-16 10:28:57+00",5.6,6.6,,69.3,-206,139,18,1017.44,67.2,0
"2019-09-16 10:33:57+00",6.5,7.5,,69.4,-239,156,20,1017.5,67.2,0
"2019-09-16 10:38:57+00",6.9,7.9,,69.5,-257,174,24,1017.53,67.2,0
"2019-09-16 10:43:57+00",6.6,6.6,,69.4,-220,186,20,1017.52,67.2,0
"2019-09-16 10:48:57+00",6.7,6.7,,69.4,-219,197,22,1017.51,67.3,0
"2019-09-16 10:53:57+00",6.2,7.2,,69.4,-192,187,13,1017.59,67.4,0
"2019-09-16 10:58:57+00",7.5,7.5,,69.2,-247,224,24,1017.54,67.5,0
"2019-09-16 11:03:57+00",8.0,8.0,,69.1,-219,278,23,1017.49,67.5,0
"2019-09-16 11:08:57+00",5.7,6.7,,68.8,-116,210,8,1017.55,67.6,0.1
"2019-09-16 11:13:57+00",6.2,7.2,,68.6,-153,223,8,1017.52,67.5,22.5
"2019-09-16 11:18:57+00",6.5,7.5,,68.5,-161,230,15,1017.5,67.5,30
"2019-09-16 11:23:57+00",5.7,6.7,,68.8,-160,191,11,1017.54,67.8,38.3
"2019-09-16 11:28:57+00",5.2,6.2,,69.1,-155,164,14,1017.46,68.2,46.8
"2019-09-16 11:33:57+00",5.3,6.3,,69.4,-173,157,26,1017.47,68.9,58
"2019-09-16 11:38:57+00",7.7,8.7,,69.8,-227,256,25,1017.52,69.5,68.3
"2019-09-16 11:43:57+00",7.6,8.6,,69.9,-229,248,23,1017.5,70,79.5
"2019-09-16 11:48:57+00",7.4,8.4,,70,-243,221,19,1017.43,70.4,87.1
"2019-09-16 11:53:57+00",8.6,9.6,,69.8,-243,292,25,1017.58,70.7,92.9
"2019-09-16 11:58:57+00",8.2,10.2,,69.7,-209,293,40,1017.6,70.9,97.8
"2019-09-16 12:03:57+00",7.5,8.5,,69.4,-168,273,31,1017.65,71,105
"2019-09-16 12:08:57+00",7.9,8.9,,69.4,-151,303,17,1017.71,71.1,118
"2019-09-16 12:13:57+00",5.8,6.8,,69.6,-91,226,26,1017.64,71.5,69.8
"2019-09-16 12:18:57+00",5.8,7.8,,69.8,-107,236,24,1017.65,71.8,58.4
"2019-09-16 12:23:57+00",6.8,7.8,,70.1,-139,255,0,1017.61,72,184.7
"2019-09-16 12:28:57+00",7.6,8.6,,70.6,-174,283,30,1017.72,72.2,80.3
"2019-09-16 12:33:57+00",9.7,10.7,,70.9,-179,386,24,1017.76,72.4,159.2
"2019-09-16 12:38:57+00",9.8,10.8,,71.3,-78,424,5,1017.8,72.7,75.5
"2019-09-16 12:43:57+00",12.2,13.2,,71.2,-157,518,13,1017.89,72.6,69.9
"2019-09-16 12:48:57+00",10.2,12.2,,70.7,-157,423,19,1017.98,72.1,63.8
"2019-09-16 12:53:57+00",9.9,11.9,,70.4,-155,397,10,1017.98,71.6,68.6
"2019-09-16 12:58:57+00",9.2,11.2,,70.4,-76,392,-2,1018.04,71.7,194.2
"2019-09-16 13:03:57+00",10.5,11.5,,70.8,-48,454,13,1018.04,72.1,107.1
"2019-09-16 13:08:57+00",9.1,11.1,,71.5,-48,392,12,1017.92,72.8,105.9
"2019-09-16 13:13:57+00",8.7,10.7,,72,-27,384,12,1017.97,73.4,167.5
"2019-09-16 13:18:57+00",6.3,8.3,,72.7,-26,265,18,1017.94,74.3,247.4
"2019-09-16 13:23:57+00",4.9,5.9,,73.3,-73,191,13,1017.78,75.3,245.4
"2019-09-16 13:28:57+00",4.8,5.8,,74,-18,202,9,1017.85,76.4,226.9
"2019-09-16 13:33:57+00",4.8,5.8,,74.5,-78,186,-8,1017.81,77.3,258.3
"2019-09-16 13:38:57+00",5.3,6.3,,74.8,-154,174,19,1017.89,77.8,275.5
"2019-09-16 13:43:57+00",6.6,7.6,,75.2,-181,225,37,1017.85,78.2,283.9
"2019-09-16 13:48:57+00",4.3,6.3,,75.6,-85,165,30,1017.88,78.6,289.6
"2019-09-16 13:53:57+00",4.3,5.3,,76.1,-37,172,9,1017.91,79.4,275.5
"2019-09-16 13:58:57+00",5.5,7.5,,76.6,-46,222,25,1017.9,80.1,302.9
"2019-09-16 14:03:57+00",6.2,7.2,,76.7,-60,256,2,1018.02,80.6,313
"2019-09-16 14:08:57+00",5.2,6.2,,76.9,-122,181,20,1017.98,80.9,320.2
"2019-09-16 14:13:57+00",5.3,6.3,,76.9,-225,83,18,1018,81.1,328.5
"2019-09-16 14:18:57+00",3.7,4.7,,76.8,-157,14,25,1017.95,81.9,333.4
"2019-09-16 14:23:57+00",3.9,4.9,,76.8,-157,-21,27,1017.98,82.5,339.8
"2019-09-16 14:28:57+00",4.6,5.6,,76.9,-179,83,19,1017.92,83.1,348.3
"2019-09-16 14:33:57+00",3.3,4.3,,77,-139,12,1,1017.94,83.7,355
"2019-09-16 14:38:57+00",2.4,3.4,,77.2,-110,9,2,1017.91,84.1,362.8
"2019-09-16 14:43:57+00",2.9,2.9,,77.1,-130,1,7,1017.88,84.6,365.2
"2019-09-16 14:48:57+00",3.6,4.6,,77.3,-137,57,41,1017.92,85.1,372.3
"2019-09-16 14:53:57+00",0.0,0.0,,77.6,-2,22,-14,1017.91,85.3,379.3
"2019-09-16 14:58:57+00",2.9,2.9,,78.1,88,78,-21,1017.83,85,382
"2019-09-16 15:03:57+00",3.0,4.0,,78.4,64,-99,13,1017.84,84.1,388.6
"2019-09-16 15:08:57+00",3.9,4.9,,78.2,92,-133,-13,1017.71,83.3,386.9
"2019-09-16 15:13:57+00",5.0,6.0,,77.8,200,-90,2,1017.64,82.2,391.3
"2019-09-16 15:18:57+00",5.6,6.6,,77.3,232,-80,-6,1017.54,81.4,397.4
"2019-09-16 15:23:57+00",8.4,9.4,,77,326,-183,2,1017.27,80.8,408.7
"2019-09-16 15:28:57+00",10.0,12.0,,76.9,335,-277,-10,1017.24,80.6,417.4
"2019-09-16 15:33:57+00",6.2,8.2,,76.7,156,-220,-16,1017.28,80.1,419.2
"2019-09-16 15:38:57+00",7.2,8.2,,76.7,217,-219,5,1017.49,79.7,418.5
"2019-09-16 15:43:57+00",6.5,8.5,,76.7,250,-135,-2,1017.6,79.9,420.5
"2019-09-16 15:48:57+00",7.5,8.5,,76.1,251,-204,-11,1017.59,79.4,427.9
"2019-09-16 15:53:57+00",7.0,7.0,,76.1,278,-117,1,1017.57,79.8,435.6
"2019-09-16 15:58:57+00",8.3,10.3,,76.4,342,-123,-2,1017.56,80,246.1
"2019-09-16 16:03:57+00",9.0,10.0,,75.9,328,-215,3,1017.47,78.9,250.4
"2019-09-16 16:08:57+00",7.6,8.6,,75.7,260,-198,6,1017.49,78.6,308.4
"2019-09-16 16:13:57+00",5.5,6.5,,76,223,-47,34,1017.57,79.2,403.5
"2019-09-16 16:18:57+00",6.5,7.5,,76,283,-8,10,1017.44,79.5,496
"2019-09-16 16:23:57+00",7.3,10.3,,76.2,301,-103,35,1017.39,79.9,299.3
"2019-09-16 16:28:57+00",9.5,11.5,,76,387,-169,-7,1017.34,79.5,363.7
"2019-09-16 16:33:57+00",8.1,9.1,,75.9,334,-122,-8,1017.32,79.3,516
"2019-09-16 16:38:57+00",7.7,10.7,,76,339,4,50,1017.44,79.6,474.6
"2019-09-16 16:43:57+00",8.5,9.5,,75.8,363,-105,16,1017.31,79.2,282.3
"2019-09-16 16:48:57+00",7.8,9.8,,75.8,352,35,24,1017.28,79,163
"2019-09-16 16:53:57+00",8.1,9.1,,75.8,344,-84,0,1017.26,79,484
"2019-09-16 16:58:57+00",10.0,11.0,,75.9,433,-97,5,1017.2,79.3,376.9
"2019-09-16 17:03:57+00",9.8,10.8,,75.5,407,-160,-1,1017.15,78.3,368.1
"2019-09-16 17:08:57+00",8.8,10.8,,75.5,381,-94,54,1017.2,78.3,327
"2019-09-16 17:13:57+00",8.8,9.8,,75.3,381,-55,9,1017.13,78.2,377.2
"2019-09-16 17:18:57+00",9.4,10.4,,75.4,389,-134,5,1017.12,78.2,324.5
"2019-09-16 17:23:57+00",9.2,11.2,,75.2,400,-63,1,1017,78.1,273.1
"2019-09-16 17:28:57+00",8.3,10.3,,75.2,334,-138,-23,1016.89,77.9,537.5
"2019-09-16 17:33:57+00",9.7,10.7,,75.2,375,-217,-12,1016.83,78,230.2
"2019-09-16 17:38:57+00",9.5,12.5,,75.1,379,-170,17,1016.77,77.9,454.8
"2019-09-16 17:43:57+00",11.2,12.2,,74.9,461,-183,-30,1016.72,77.8,217.8
"2019-09-16 17:48:57+00",10.7,11.7,,74.6,463,-123,-1,1016.66,77,170.6
"2019-09-16 17:53:57+00",11.8,12.8,,74.5,522,-86,-2,1016.55,76.5,179.1
"2019-09-16 17:58:57+00",11.2,12.2,,74.2,493,-89,-7,1016.65,76.2,143.6
"2019-09-16 18:03:57+00",9.9,11.9,,74.2,428,-119,3,1016.55,75.8,192
"2019-09-16 18:08:57+00",10.5,11.5,,74.3,446,-145,-4,1016.51,75.8,131.2
"2019-09-16 18:13:57+00",10.0,11.0,,74.3,417,-148,17,1016.56,75.7,126.6
"2019-09-16 18:18:57+00",9.6,10.6,,74.2,376,-190,19,1016.48,75.6,139.2
"2019-09-16 18:23:57+00",10.4,11.4,,74.1,440,-129,-13,1016.49,76.1,458.7
"2019-09-16 18:28:57+00",11.1,12.1,,74.1,457,-190,-28,1016.41,76.5,416.9
"2019-09-16 18:33:57+00",10.4,12.4,,74.4,385,-237,12,1016.2,77,400.6
"2019-09-16 18:38:57+00",10.3,11.3,,74.4,392,-233,2,1016.16,77,434.9
"2019-09-16 18:43:57+00",11.6,12.6,,74.5,429,-273,-15,1016.09,77.3,365.3
"2019-09-16 18:48:57+00",9.8,10.8,,74.2,362,-229,-13,1016.15,76.7,155.2
"2019-09-16 18:53:57+00",9.5,10.5,,74.2,348,-221,-7,1016.17,76.2,129
"2019-09-16 18:58:57+00",9.9,10.9,,73.9,367,-221,-21,1016.21,75.9,134.1
"2019-09-16 19:03:57+00",10.0,12.0,,74,399,-174,17,1016.18,75.7,275.6
"2019-09-16 19:08:57+00",9.0,10.0,,74.2,334,-198,4,1016.12,76.2,411.6
"2019-09-16 19:13:57+00",8.9,10.9,,74.3,374,-107,-2,1016.01,76.9,394.6
"2019-09-16 19:18:57+00",9.6,10.6,,74.5,289,-298,20,1015.89,77.5,366.5
"2019-09-16 19:23:57+00",10.8,12.8,,74.5,432,-187,33,1015.66,77.4,255.3
"2019-09-16 19:28:57+00",11.3,13.3,,74.3,438,-240,20,1015.65,77.3,235.9
"2019-09-16 19:33:57+00",11.5,13.5,,73.8,438,-246,-12,1015.68,76.3,142.3
"2019-09-16 19:38:57+00",10.0,11.0,,73.8,374,-235,-1,1015.7,75.7,106.3
"2019-09-16 19:43:57+00",9.4,10.4,,73.7,334,-231,-13,1015.81,75.4,91.3
"2019-09-16 19:48:57+00",8.9,9.9,,73.7,332,-210,10,1015.8,75.2,93.1
"2019-09-16 19:53:57+00",8.6,10.6,,73.7,283,-233,16,1015.77,75.2,91.2
"2019-09-16 19:58:57+00",9.2,11.2,,73.5,375,-166,-7,1015.69,74.9,65.5
"2019-09-16 20:03:57+00",9.6,10.6,,73.4,351,-223,-18,1015.68,74.6,44
"2019-09-16 20:08:57+00",8.5,9.5,,73.4,264,-256,4,1015.78,74.4,44.7
"2019-09-16 20:13:57+00",8.3,9.3,,73.3,269,-243,-12,1015.66,74.3,47.6
"2019-09-16 20:18:57+00",9.0,10.0,,73.4,292,-256,-12,1015.61,74.4,160.9
"2019-09-16 20:23:57+00",8.7,10.7,,73.5,296,-224,-4,1015.53,74.7,90.9
"2019-09-16 20:28:57+00",9.6,10.6,,73.4,362,-210,-1,1015.47,74.6,50.9
"2019-09-16 20:33:57+00",8.9,9.9,,73.4,343,-185,-5,1015.42,74.5,64.3
"2019-09-16 20:38:57+00",8.6,9.6,,73.5,305,-206,-2,1015.43,74.5,77
"2019-09-16 20:43:57+00",8.3,9.3,,73.5,310,-199,19,1015.38,74.6,89.9
"2019-09-16 20:48:57+00",8.8,9.8,,73.5,251,-275,10,1015.25,74.5,87.2
"2019-09-16 20:53:57+00",8.9,9.9,,73.8,272,-272,7,1015.22,74.8,159.7
"2019-09-16 20:58:57+00",9.7,10.7,,73.9,284,-306,-17,1015.12,75.2,201.2
"2019-09-16 21:03:57+00",7.6,8.6,,73.8,243,-207,25,1015.14,75.1,54.4
"2019-09-16 21:08:57+00",8.2,9.2,,73.7,268,-234,-13,1015.15,74.9,65.5
"2019-09-16 21:13:57+00",7.1,8.1,,73.7,171,-250,-3,1015.19,74.8,68.8
"2019-09-16 21:18:57+00",7.3,9.3,,73.8,260,-177,21,1015.16,75,67.6
"2019-09-16 21:23:57+00",7.2,9.2,,73.8,249,-171,5,1015.16,75,75
"2019-09-16 21:28:57+00",7.7,8.7,,73.6,317,-113,-6,1015.23,74.9,128.2
"2019-09-16 21:33:57+00",7.1,8.1,,73.4,286,-128,-4,1015.15,74.7,54.7
"2019-09-16 21:38:57+00",7.7,8.7,,73.4,282,-186,-19,1015.17,74.7,102.5
"2019-09-16 21:43:57+00",8.0,10.0,,73.4,323,-144,-1,1015.15,74.8,92.6
"2019-09-16 21:48:57+00",8.2,9.2,,73.4,318,-170,-15,1015.09,74.7,29.8
"2019-09-16 21:53:57+00",7.7,8.7,,73.3,281,-169,-5,1015.2,74.3,5.5
"2019-09-16 21:58:57+00",7.4,8.4,,73.2,262,-185,-7,1015.19,74,16.8
"2019-09-16 22:03:57+00",7.5,8.5,,73.2,274,-173,-4,1015.09,73.9,2.6
"2019-09-16 22:08:57+00",8.0,9.0,,73,298,-180,-4,1015.24,73.6,2.7
"2019-09-16 22:13:57+00",7.1,8.1,,72.9,282,-132,7,1015.3,73.4,7.7
"2019-09-16 22:18:57+00",8.4,8.4,,72.9,304,-195,-10,1015.31,73.3,0
"2019-09-16 22:23:57+00",8.0,9.0,,72.8,334,-109,1,1015.39,73.1,0
"2019-09-16 22:28:57+00",7.6,8.6,,72.7,304,-125,7,1015.37,72.9,0
"2019-09-16 22:33:57+00",6.5,7.5,,72.6,262,-96,3,1015.4,72.7,0
"2019-09-16 22:38:57+00",7.6,8.6,,72.6,316,-105,-1,1015.49,72.6,0
"2019-09-16 22:43:57+00",6.6,7.6,,72.5,275,-78,5,1015.48,72.4,0
"2019-09-16 22:48:57+00",8.0,8.0,,72.5,354,-61,5,1015.58,72.4,0
"2019-09-16 22:53:57+00",7.9,8.9,,72.5,348,-11,17,1015.56,72.4,0
"2019-09-16 22:58:57+00",7.7,8.7,,72.5,337,-32,11,1015.64,72.4,0
"2019-09-16 23:03:57+00",7.7,8.7,,72.5,338,-31,4,1015.57,72.3,0
"2019-09-16 23:08:57+00",7.2,8.2,,72.5,311,-31,13,1015.61,72.3,0
"2019-09-16 23:13:57+00",8.4,9.4,,72.4,370,-40,8,1015.67,72.3,0
"2019-09-16 23:18:57+00",7.5,8.5,,72.5,333,-12,22,1015.79,72.2,0
"2019-09-16 23:23:57+00",8.7,9.7,,72.5,392,15,20,1015.78,72.3,0
"2019-09-16 23:28:57+00",9.2,10.2,,72.6,405,-15,15,1015.73,72.3,0
"2019-09-16 23:33:57+00",8.0,9.0,,72.6,361,-8,23,1015.83,72.3,0
"2019-09-16 23:38:57+00",8.9,9.9,,72.5,400,-41,11,1015.9,72.3,0
"2019-09-16 23:43:57+00",8.1,10.1,,72.4,369,-36,23,1015.83,72.3,0
"2019-09-16 23:48:57+00",8.7,9.7,,72.4,382,-53,9,1015.78,72.2,0
"2019-09-16 23:53:57+00",7.6,9.6,,72.4,338,-19,19,1015.8,72.2,0
"2019-09-16 23:58:57+00",8.1,9.1,,72.4,358,36,24,1015.82,72.3,0
